Lapse_Rate
8.3 5.5 5.0 5.8 6.1 6.0 5.8 6.1 5.9 5.5 5.5 5.4 5.4 5.5 5.7 5.6 5.6 5.9 6.1 6.2 6.0 6.1 6.6 6.3 6.0 5.9 6.2 5.7 5.6 5.7 5.9 5.9 6.0 6.0 5.9 5.9 6.2 6.4 6.8 7.3 7.6 6.7 6.4
8.7 5.8 5.0 5.7 6.0 6.0 5.8 6.1 6.0 5.8 5.6 5.5 5.5 5.5 5.6 5.6 5.8 6.0 6.7 6.6 6.6 6.3 6.1 6.1 6.1 6.9 6.1 5.6 5.4 5.5 5.4 5.6 5.7 6.0 5.9 6.2 6.7 6.7 7.3 7.8 7.2 6.4 6.4
9.4 6.3 5.7 5.5 5.9 5.8 5.8 6.0 6.2 6.1 6.1 5.8 5.7 5.6 5.6 5.7 5.7 5.9 6.2 6.7 6.8 6.7 6.2 6.1 6.2 6.0 5.8 5.7 5.5 5.5 5.3 5.8 6.4 6.8 7.0 7.1 6.5 6.8 6.8 6.3 6.1 6.1 6.1
9.7 7.2 6.2 5.4 5.8 5.8 5.8 5.9 6.3 6.2 6.2 6.1 5.9 5.8 5.8 5.8 5.9 5.9 6.2 6.5 6.8 7.1 6.8 6.5 6.5 6.2 6.0 5.8 5.6 5.5 6.0 6.5 6.7 7.6 8.5 7.1 7.0 5.8 5.9 5.7 5.7 6.1 6.0
9.8 9.6 5.6 5.2 5.5 5.7 5.8 6.0 6.2 6.3 6.1 6.2 6.2 6.1 6.0 6.1 6.1 6.2 6.6 6.8 6.9 6.8 6.9 6.9 6.9 7.5 6.5 6.0 5.5 5.7 5.7 6.5 7.3 3.7 6.6 7.4 6.1 5.2 5.2 5.6 5.6 6.1 7.0
9.8 8.8 5.3 5.3 5.5 5.6 5.8 5.9 6.3 6.3 6.3 6.4 6.5 6.3 6.3 6.2 6.3 6.3 6.6 6.9 6.9 6.9 7.1 6.9 7.0 7.0 6.7 6.8 5.9 5.7 5.8 6.0 6.3 6.9 8.7 8.5 6.5 5.0 5.1 5.8 5.4 5.6 5.4
9.3 6.5 5.5 5.3 5.5 5.5 5.8 6.0 6.2 6.5 6.4 6.4 6.5 6.4 6.4 6.2 6.1 6.3 6.5 6.7 6.9 6.9 7.1 7.1 7.1 7.0 6.9 6.7 6.5 6.1 5.7 5.8 6.1 7.1 8.5 6.5 5.6 5.4 5.4 5.5 5.6 5.3 5.2
8.3 7.1 5.1 5.2 5.4 5.4 5.7 5.8 6.1 6.3 6.4 6.5 6.7 6.6 6.3 6.2 6.1 6.3 6.4 6.6 6.8 7.0 6.9 7.0 7.2 7.2 7.1 7.0 6.6 6.2 6.2 6.1 7.9 8.5 8.9 7.0 5.4 5.1 5.8 5.5 5.4 5.5 5.6
9.0 7.8 6.4 6.2 5.7 5.4 5.5 5.5 5.7 6.1 6.3 6.5 6.5 6.2 6.0 6.0 6.2 6.5 6.7 6.3 6.5 6.8 7.0 7.0 7.2 7.2 7.2 6.9 6.7 6.4 6.2 6.2 6.5 7.3 6.4 6.0 5.4 5.6 5.3 5.6 5.6 5.4 5.4
9.0 8.1 9.1 7.4 6.3 6.0 5.5 5.4 5.7 5.8 6.2 6.3 6.0 6.1 6.0 6.1 6.9 7.0 7.0 7.2 6.2 6.4 6.8 6.9 7.0 7.2 6.8 6.8 6.6 6.4 6.1 6.2 6.5 8.0 6.1 7.1 6.0 5.7 5.4 5.3 5.4 5.2 5.1
9.0 8.7 9.6 9.7 8.5 7.7 7.8 6.0 5.8 6.3 6.6 6.5 6.1 6.0 6.4 4.4 4.7 3.8 6.4 6.5 5.8 5.2 5.5 5.9 6.5 7.3 6.8 6.6 6.4 6.3 6.4 6.8 8.2 6.1 5.9 6.5 6.8 6.3 5.8 5.5 5.3 5.2 5.2
7.9 8.2 9.2 9.5 9.5 9.4 9.2 6.9 6.5 6.6 6.4 6.8 7.9 6.9 5.9 3.9 2.8 4.5 5.7 6.3 5.8 5.2 5.4 5.7 5.0 6.2 6.9 7.9 6.4 6.1 6.3 6.2 5.4 8.0 6.3 7.2 6.8 6.4 6.6 5.8 5.6 5.5 5.1
9.1 7.1 7.7 7.5 7.9 8.2 3.9 7.1 7.7 7.0 8.2 8.3 6.1 6.8 7.6 6.4 5.6 5.4 4.8 5.6 5.2 5.6 6.7 4.6 4.6 5.6 7.8 7.5 7.7 6.2 6.7 6.3 5.4 8.0 7.3 5.5 5.8 5.8 5.8 5.9 6.0 5.9 5.6
8.5 7.9 8.1 6.0 8.6 8.6 5.3 8.6 8.2 6.9 8.1 7.8 8.4 7.4 6.9 7.9 4.5 3.8 4.5 5.1 5.6 6.7 6.5 5.6 5.3 6.0 7.8 7.3 6.9 5.8 5.5 7.5 7.7 7.4 5.3 5.1 5.0 5.0 5.4 5.7 6.3 6.2 6.0
8.7 3.7 7.2 5.5 7.6 7.2 6.9 7.5 6.9 7.1 7.9 8.0 6.4 7.8 7.3 7.3 3.8 2.3 3.9 4.9 4.9 6.5 6.6 5.6 5.8 7.1 7.7 7.0 7.5 8.5 8.6 7.7 7.8 5.6 6.3 4.9 4.6 4.6 5.0 5.2 5.4 5.9 5.9
8.9 7.3 8.2 8.1 8.2 7.5 7.6 6.7 7.6 7.6 6.8 8.0 9.3 7.9 8.1 8.4 5.5 3.1 4.0 2.5 2.0 3.7 5.8 3.1 2.9 5.6 6.0 6.3 6.4 8.3 8.0 8.0 6.8 7.7 7.3 4.8 4.5 4.5 4.5 4.9 4.8 5.1 5.3
9.0 8.9 8.5 6.7 8.7 7.8 9.0 9.2 8.5 6.9 7.8 8.0 9.1 7.5 8.0 8.5 9.0 4.5 3.2 3.1 2.6 3.3 6.5 3.5 3.7 6.7 6.1 6.8 6.9 7.0 8.2 8.5 8.0 7.7 6.6 5.7 4.5 4.4 4.4 4.7 5.1 5.1 5.1
8.7 7.7 8.3 9.1 9.5 9.2 8.2 8.6 8.4 6.6 7.0 6.7 8.9 8.2 8.1 8.2 8.7 8.4 7.0 5.5 4.8 5.9 5.4 5.3 5.3 5.4 6.1 6.1 6.1 7.1 6.9 7.4 8.4 7.7 7.9 6.4 6.0 5.8 4.5 5.1 4.6 5.1 5.2
8.7 8.1 8.3 8.3 8.5 8.5 8.7 8.8 8.4 7.9 7.1 6.8 8.3 8.8 7.6 8.0 8.5 8.0 7.5 7.2 8.7 8.0 3.8 3.6 5.3 6.3 6.0 3.3 2.2 3.1 6.9 6.3 7.1 9.3 8.2 7.4 5.9 6.6 3.7 3.7 4.3 4.8 5.2
8.4 8.4 8.2 6.7 6.4 8.4 8.1 8.6 8.3 7.1 7.1 7.7 8.4 8.8 6.8 7.8 8.4 7.5 6.7 7.5 8.5 7.3 4.6 2.6 3.4 7.0 6.3 3.3 3.7 5.4 6.9 6.8 6.4 6.6 7.5 8.2 7.5 8.1 4.5 3.5 4.4 4.4 4.2
7.1 6.0 7.4 6.2 5.8 8.0 7.4 7.4 7.8 8.2 6.4 6.9 8.4 8.8 7.2 9.0 7.9 7.0 7.7 7.1 7.9 6.8 5.6 5.5 7.4 6.7 4.0 4.7 6.6 6.2 2.9 3.9 5.0 6.1 6.5 6.7 7.1 7.9 5.9 5.1 5.1 5.2 4.8
6.1 5.3 5.7 6.4 4.9 5.2 4.3 4.9 6.9 7.7 6.6 7.4 7.8 7.5 8.9 9.0 8.5 8.7 7.8 7.3 7.8 7.2 7.8 7.8 6.3 5.8 6.1 2.8 4.4 4.5 3.7 4.4 5.5 6.1 6.2 7.7 7.5 7.6 5.4 7.1 6.3 6.2 5.9
5.9 5.0 4.8 5.6 5.5 4.9 4.7 5.0 5.7 5.8 7.2 7.1 6.7 7.6 7.5 8.0 7.9 8.1 8.4 7.6 7.3 7.5 6.7 6.8 7.1 6.7 6.2 4.4 4.5 6.3 4.8 5.3 3.5 2.1 2.5 6.5 4.4 7.0 7.8 7.4 7.4 7.4 6.2
8.6 6.4 5.1 4.9 6.0 6.2 5.7 6.5 5.7 6.4 7.0 8.1 7.3 8.2 8.0 7.4 6.8 7.7 7.7 7.6 7.0 6.9 6.7 6.4 6.4 6.9 5.7 6.4 4.7 6.7 6.8 5.3 4.2 3.9 3.7 3.0 2.2 2.0 1.2 2.0 5.1 4.1 4.6
8.7 8.9 7.8 5.7 5.9 5.8 6.1 6.5 7.4 7.5 8.0 8.2 7.8 7.5 7.5 7.2 7.9 8.6 7.4 6.5 7.0 7.4 6.8 6.6 6.8 7.2 6.9 6.5 6.5 5.6 6.2 6.4 6.1 4.5 4.5 1.9 2.0 1.4 2.9 2.5 1.1 2.6 3.1
8.7 8.8 8.7 6.4 6.1 6.9 7.1 6.0 5.7 7.0 7.3 7.0 6.9 6.0 7.4 7.4 6.9 6.0 7.3 6.4 6.3 6.8 6.6 6.9 6.6 7.0 6.3 6.3 5.6 5.8 6.2 6.8 5.4 5.7 5.2 2.4 2.5 2.4 1.4 2.3 1.2 3.6 5.0
Wind_Speed
16 20 17 14 13 14 15 13 12 12 13 13 12 13 14 15 14 13 13 13 13 13 14 14 11 11 13 11 11 13 14 14 15 17 19 20 18 15 14 18 22 19 19
21 22 17 14 14 14 15 14 12 12 12 12 12 11 12 12 13 13 13 12 11 11 11 12 11 13 13 12 11 11 13 14 16 19 20 19 17 17 17 17 22 19 19
20 23 19 15 14 15 15 15 13 12 12 12 12 11 11 11 12 11 11 11 10 9 9 9 11 11 12 12 11 11 12 13 14 18 23 15 16 18 20 21 18 18 17
21 23 20 16 14 15 15 15 13 12 12 11 11 10 10 9 9 10 9 9 8 7 7 7 8 9 9 10 9 8 8 9 10 7 4 17 16 16 18 18 16 17 18
19 23 22 17 15 15 15 15 13 12 11 10 9 9 8 7 8 8 8 8 7 6 7 7 7 7 8 8 7 6 4 7 12 19 13 20 17 15 15 14 14 14 18
19 27 22 18 17 15 15 15 12 11 10 9 9 7 6 5 6 6 7 8 8 8 7 7 7 6 6 7 6 5 5 5 5 15 13 15 19 16 13 10 14 14 15
19 27 24 18 16 15 15 14 12 10 9 7 6 6 4 3 3 5 5 7 8 8 7 7 6 7 6 6 5 4 5 7 9 14 16 20 19 18 12 12 11 12 13
20 23 23 19 15 14 13 12 11 9 8 6 5 3 2 1 1 1 3 5 6 6 5 5 5 5 4 4 4 4 6 9 11 9 5 19 22 20 15 12 11 10 11
19 19 19 17 14 13 12 11 10 9 8 6 4 5 4 3 3 3 2 5 5 5 5 4 4 4 5 6 6 7 8 10 12 11 11 19 24 21 17 13 11 9 8
17 14 15 17 15 15 13 12 10 9 8 7 7 6 6 6 5 5 4 4 6 5 3 1 2 4 6 8 9 9 10 10 11 6 17 12 22 19 18 13 12 11 10
13 13 14 16 15 15 15 14 11 10 8 9 10 11 9 5 9 16 4 7 9 6 4 1 4 8 9 10 11 12 11 9 12 5 9 21 22 20 19 16 13 12 11
8 9 8 14 14 12 8 15 13 13 13 14 12 14 14 17 14 20 12 9 5 2 1 5 9 9 12 12 14 13 9 7 14 14 14 11 20 20 18 18 15 13 11
11 7 6 5 7 15 5 12 13 13 12 12 17 12 10 11 9 9 0 2 5 3 1 4 7 9 14 10 5 6 11 18 17 13 16 24 21 19 18 18 18 16 14
11 14 14 9 5 12 17 12 5 5 6 10 11 9 9 3 9 8 4 4 3 6 4 6 7 12 16 11 13 18 14 7 2 7 11 21 20 19 18 17 16 16 15
13 3 10 3 7 6 4 4 1 1 5 6 16 12 5 4 5 11 7 8 13 4 6 6 7 11 7 8 11 6 5 6 7 18 15 20 21 19 16 18 19 18 16
14 12 11 14 8 4 3 5 3 1 6 9 5 12 9 3 12 12 7 4 14 11 8 11 6 5 4 7 7 7 6 10 13 11 10 14 18 19 18 17 20 20 19
15 13 12 8 9 8 4 2 5 6 8 5 4 13 2 5 2 19 10 8 15 15 14 13 8 9 5 6 6 4 6 9 8 10 15 14 17 19 19 19 18 20 19
15 12 15 13 12 9 7 4 6 8 6 5 5 12 10 7 5 4 3 7 13 9 11 6 5 5 3 4 1 3 5 5 6 8 11 15 14 15 17 19 21 21 21
12 12 13 9 5 10 5 5 6 5 8 8 9 6 13 9 8 5 4 4 6 0 3 3 5 5 4 8 6 7 7 4 6 9 8 10 16 14 17 20 22 21 22
13 6 10 9 7 5 6 2 4 0 4 7 5 5 15 11 8 4 8 5 4 1 4 3 6 5 6 8 5 8 5 3 5 5 5 11 13 14 22 9 15 19 25
15 11 6 10 7 4 3 5 6 4 3 2 3 7 15 6 9 9 4 2 5 5 6 7 2 2 5 8 1 4 4 8 7 6 6 6 5 12 21 16 16 18 20
17 13 10 8 10 5 6 3 4 2 4 3 2 3 7 8 9 5 5 5 3 4 3 4 5 2 3 4 2 3 1 2 3 4 5 7 10 10 16 17 20 18 17
19 16 14 11 10 10 7 4 4 4 3 3 3 3 5 7 8 9 4 4 3 3 4 4 3 5 2 3 6 2 2 0 1 3 12 9 7 1 4 13 16 12 17
11 18 16 14 11 10 10 7 9 7 6 5 5 6 6 12 11 12 9 7 5 5 5 5 3 3 2 2 1 6 4 5 3 2 9 7 6 11 12 10 6 14 22
15 11 14 15 13 11 11 10 7 8 6 5 3 5 6 4 8 7 8 7 5 6 6 5 4 4 2 4 3 5 3 2 5 4 3 4 4 6 9 7 5 12 5
14 12 11 14 12 12 11 11 11 8 9 5 6 3 4 6 7 8 11 7 5 7 6 5 7 4 4 4 5 5 6 1 3 1 2 3 4 3 3 5 8 2 25
Wind_Direction
139 137 139 146 148 145 139 134 128 123 113 106 98 89 82 78 76 72 69 68 66 68 82 84 76 99 113 95 98 98 104 112 110 108 103 102 103 108 126 130 116 105 105
133 139 137 140 147 145 139 138 136 127 120 115 108 93 85 81 77 72 65 72 67 69 71 82 80 99 104 102 107 109 124 135 129 117 109 104 101 96 110 105 96 106 106
136 134 135 134 139 140 141 142 139 134 127 120 112 104 92 84 82 78 72 67 76 78 72 77 85 82 104 107 116 128 148 147 137 138 130 114 102 96 99 101 104 104 105
134 141 134 130 133 136 138 144 143 136 131 126 117 109 100 92 86 78 73 73 73 76 88 86 94 99 97 112 119 135 152 140 133 109 204 126 103 106 106 107 111 115 113
136 140 129 129 129 132 137 143 150 142 136 132 122 111 102 91 79 73 69 76 87 91 91 95 96 107 117 119 124 152 178 157 132 125 239 124 123 116 116 118 119 120 117
145 125 133 132 130 132 134 139 150 148 142 137 128 119 108 95 80 68 64 68 91 105 102 97 104 110 125 136 140 166 236 254 242 225 142 114 119 131 130 129 114 117 116
128 128 135 137 136 135 136 138 143 150 147 145 136 128 120 105 89 72 74 86 95 111 112 110 115 116 115 140 159 186 243 277 284 303 133 122 130 134 131 126 124 125 124
126 131 137 137 144 147 148 147 152 161 161 158 149 139 145 158 151 103 89 101 104 111 120 120 132 149 156 171 183 224 257 272 283 296 157 131 142 140 139 141 139 137 133
126 128 134 141 148 155 161 162 166 172 174 165 174 195 199 221 230 238 213 130 124 137 145 137 158 180 192 203 219 228 249 269 287 337 326 132 150 147 147 158 156 155 155
125 136 141 148 158 166 166 171 173 183 185 184 200 210 222 233 287 258 262 143 121 114 112 67 257 230 218 216 218 225 241 263 268 214 255 152 150 150 150 164 173 166 167
129 145 155 155 159 187 166 171 182 190 192 206 211 215 221 64 13 315 203 144 111 107 90 26 304 272 247 230 223 222 224 246 250 205 261 171 168 162 163 171 179 178 180
137 142 140 151 161 175 163 156 181 182 195 204 207 182 177 174 201 202 198 171 129 174 38 14 325 280 248 239 207 219 207 206 260 207 119 191 171 169 177 174 185 191 193
156 130 147 127 174 132 62 199 189 190 201 198 157 188 223 166 203 127 299 305 155 238 27 185 281 266 259 238 234 303 255 186 224 225 175 181 179 175 184 185 187 192 198
177 150 156 164 190 133 181 217 108 229 235 186 163 184 243 147 152 137 211 283 205 283 225 215 242 257 242 231 225 194 239 238 119 348 147 175 179 181 189 195 197 196 203
158 81 131 309 169 136 186 123 126 272 303 188 151 183 237 111 147 96 19 351 319 188 227 303 281 265 236 234 266 216 225 237 244 152 197 188 181 175 188 204 206 206 210
164 168 145 187 128 133 246 142 181 259 289 296 169 132 180 66 146 131 133 167 266 271 169 234 238 234 243 236 244 199 221 220 255 173 160 183 183 178 183 199 209 213 218
170 173 154 156 180 162 214 169 178 205 236 278 126 125 139 270 6 135 178 185 221 233 227 213 241 239 227 229 223 210 229 223 197 267 161 175 185 191 189 193 206 213 219
160 168 153 185 172 172 192 159 275 188 228 245 247 140 158 263 270 246 186 183 202 174 238 212 188 238 254 216 278 216 207 218 200 208 245 171 178 189 200 207 202 221 218
148 167 166 142 201 169 199 180 211 264 189 214 242 151 166 205 252 253 285 136 23 239 75 2 286 238 251 77 312 310 249 203 195 206 231 173 188 181 171 209 217 218 226
142 159 142 152 198 215 155 197 284 114 290 198 188 206 160 202 192 221 287 310 66 29 118 225 252 310 311 167 189 223 251 211 214 212 217 211 176 180 185 203 205 219 223
146 163 173 162 165 178 153 191 223 214 239 261 211 219 176 183 190 203 242 228 202 242 185 197 287 17 318 360 331 116 29 320 267 219 207 206 165 220 177 190 191 209 213
159 170 178 175 168 172 168 211 249 232 207 214 167 225 184 192 209 241 204 264 325 338 284 210 232 248 159 7 234 101 214 208 300 344 268 210 207 212 157 191 196 200 197
160 168 177 195 172 182 174 213 264 288 198 187 245 201 205 211 205 233 239 229 292 307 292 268 295 263 337 229 229 253 202 91 342 355 329 303 25 357 191 182 195 182 193
190 167 170 180 193 184 205 198 205 227 243 218 197 236 201 202 211 230 199 222 247 271 312 285 202 296 161 273 72 272 200 139 129 81 307 292 58 23 355 338 77 65 282
181 186 165 173 182 188 197 227 242 220 240 239 274 246 218 204 231 223 208 207 213 238 253 287 300 309 318 304 341 316 323 191 171 168 166 287 44 34 315 246 111 235 259
165 179 180 168 179 187 183 204 232 258 228 243 230 267 247 220 214 215 214 204 212 237 262 253 261 240 264 295 311 308 301 313 261 271 153 195 142 250 209 225 262 232 201